Epoch 2009 May 9.0 TT = JDT 2454960.5
T 2009 May 21.74634 TT MPCW
q 1.2961075 (2000.0) P Q
n 0.15588855 Peri. 346.94644 -0.39394977 +0.87750720
a 3.4192163 Node 259.30537 -0.81630939 -0.47077528
e 0.6209343 Incl. 16.15889 -0.42242462 +0.09138795
P 6.32
From 1054 observations 2009 June 15-2015 June 10, mean residual 0".5.